GFSMA_sfc_rhum_132.txt.gz
RH
64 59 69 72 67 58 59 66 63 56 55 45 41 39 36 38 36 42 55 72 72 73 70 68 70 73 75 77 80 81 80 80 82 81 81 80 77 79 80 76 75 82 79
68 62 67 62 58 62 56 60 65 61 59 44 45 41 42 41 46 47 48 61 74 75 76 75 73 72 71 74 77 79 80 81 81 81 84 84 80 81 77 76 75 82 76
64 77 72 72 64 61 60 60 59 59 49 43 50 47 44 45 45 45 49 46 57 76 76 75 73 75 75 78 74 76 82 83 81 81 84 83 80 80 77 76 76 79 76
64 76 72 76 80 83 72 64 62 57 50 52 55 54 52 50 51 50 52 47 51 41 73 75 75 78 76 73 72 73 79 82 83 81 82 81 78 80 77 76 76 77 79
60 79 98 92 85 96 96 59 55 55 56 52 44 50 51 53 55 35 49 50 48 49 55 76 77 81 76 71 69 68 72 80 84 82 81 81 78 81 80 77 77 77 79
61 89 92 79 88 93 94 76 72 66 59 54 29 36 48 49 49 47 42 38 43 48 47 65 82 75 80 74 69 68 69 79 81 83 81 80 80 80 83 82 81 78 80
63 83 93 89 92 97 97 71 67 72 71 63 70 64 60 71 54 64 70 49 39 39 44 55 60 64 70 72 70 72 73 71 78 80 84 79 81 77 84 85 84 82 81
62 73 87 95 94 95 83 71 75 88 92 86 89 98 97 97 84 67 86 80 74 45 44 48 48 62 61 64 69 68 76 77 79 80 81 84 78 82 80 86 86 85 84
58 78 75 89 90 96 92 82 77 84 79 94 90 96 96 98 95 92 90 88 80 54 54 51 52 58 60 65 74 79 85 87 83 80 81 84 78 82 79 84 88 88 86
65 64 62 67 78 94 92 82 68 85 88 96 95 89 88 92 95 98 96 94 86 49 56 58 50 56 70 84 78 81 89 91 88 83 80 78 83 78 84 80 86 89 90
65 63 63 64 71 73 81 78 76 79 80 89 87 90 89 68 82 63 73 72 76 64 57 59 48 61 63 78 95 88 90 92 91 90 87 80 77 77 78 81 82 87 87
65 70 64 70 76 78 79 83 80 79 84 83 85 77 73 72 69 68 68 64 59 71 66 63 54 58 74 88 86 89 90 90 90 91 90 90 86 78 74 77 80 78 80
72 73 73 77 72 80 74 75 82 83 80 82 81 77 72 69 65 64 68 68 65 64 56 60 62 79 89 78 81 85 90 91 92 93 93 92 91 90 88 84 81 82 79
82 92 85 67 71 70 72 75 76 74 81 91 90 81 76 70 63 64 65 70 70 70 70 66 69 79 80 83 85 81 91 90 91 92 93 93 94 93 93 93 88 86 87
87 85 80 81 72 72 78 77 74 78 77 84 82 76 78 72 67 68 46 67 74 76 70 69 71 86 87 84 73 85 88 88 89 91 93 93 93 93 95 96 89 86 85
88 94 89 73 71 71 74 80 80 74 80 75 65 79 81 72 69 65 62 68 69 66 76 66 72 80 88 62 81 86 86 82 87 89 91 93 94 96 95 95 95 94 92
89 83 77 76 74 73 74 82 86 84 82 83 82 80 76 79 76 73 73 74 73 73 80 69 84 80 74 73 84 89 80 76 82 89 91 92 92 95 94 95 96 96 96
78 74 75 74 78 77 78 82 80 78 80 81 80 84 78 58 80 77 78 86 84 81 84 83 78 81 84 75 76 90 78 54 72 84 90 89 88 88 89 91 93 95 96
76 65 76 80 80 79 80 76 78 79 79 78 80 81 76 76 84 82 86 87 90 82 92 93 89 84 74 76 84 84 86 74 54 82 89 86 84 84 85 87 88 90 93
73 73 74 75 77 78 77 72 74 78 78 74 78 81 77 77 83 87 80 90 78 89 90 92 91 83 90 85 94 92 95 90 68 46 65 76 76 79 80 83 83 84 88
72 77 78 75 75 70 61 77 76 75 77 78 81 82 76 83 90 87 92 91 90 93 94 92 94 93 92 96 99 99 96 96 87 84 67 75 78 66 66 71 68 77 83
79 80 82 78 76 60 94 91 84 79 77 78 83 80 82 84 94 95 88 90 89 92 92 92 95 92 90 97 97 98 95 95 95 93 92 72 59 67 68 76 73 74 79
85 86 84 79 80 82 95 91 84 75 78 82 83 81 74 63 80 81 97 96 96 94 91 93 95 92 90 90 91 89 90 93 95 92 88 73 59 65 63 69 76 74 77
90 91 89 87 89 92 94 91 89 85 88 87 84 89 95 91 97 96 93 88 85 88 89 70 87 90 94 90 93 89 87 92 93 94 88 88 64 58 55 72 70 75 78
94 94 93 92 92 93 95 96 96 90 93 91 91 88 85 86 84 85 91 93 92 91 90 84 81 83 84 82 83 84 94 97 95 91 85 91 87 64 57 61 70 67 77
92 94 98 98 99 99 99 99 99 96 95 92 88 86 91 89 90 88 90 95 97 95 81 78 72 74 76 71 78 71 69 84 94 93 69 83 70 66 73 62 57 63 70

GFSMA_sfc_rhum_135.txt.gz
RH
88 91 80 82 80 75 82 76 74 63 61 54 45 43 44 48 54 58 72 76 77 77 76 73 76 77 77 77 80 81 78 80 82 80 81 80 78 80 76 76 81 78 74
76 78 74 78 83 76 64 65 72 67 63 50 48 42 39 51 51 57 64 73 77 78 78 78 78 77 73 75 78 81 80 82 82 81 84 82 82 79 76 76 81 76 73
78 90 95 94 95 96 86 78 64 66 64 49 47 52 48 44 47 52 55 58 80 78 78 78 77 76 77 80 78 81 82 83 82 83 87 83 83 79 77 77 80 77 77
92 93 96 94 93 94 85 79 73 68 60 54 53 58 51 55 50 49 54 56 57 49 80 78 76 76 80 78 79 80 80 83 85 83 85 84 80 80 78 78 78 80 80
90 93 92 94 93 96 93 94 83 75 63 60 58 60 61 64 60 60 80 82 75 74 87 82 79 81 78 72 76 71 75 84 85 86 83 85 83 82 80 80 79 79 79
90 95 92 85 91 92 97 98 92 91 77 82 42 59 74 83 62 70 80 79 75 80 91 90 85 84 80 76 69 72 78 80 83 86 84 85 84 86 84 84 84 80 80
90 91 96 86 94 97 93 95 96 94 93 88 68 63 78 82 80 70 79 90 85 85 92 91 84 81 80 76 73 76 75 76 80 84 88 81 84 88 87 86 86 84 81
90 86 91 91 92 92 92 97 96 96 96 91 95 97 95 91 81 75 87 63 70 87 71 60 62 67 75 81 78 84 84 84 81 81 86 84 83 84 89 89 88 87 85
83 83 87 89 91 94 90 94 87 95 92 91 95 91 87 94 94 88 86 90 93 92 77 72 82 62 83 89 84 89 90 92 85 81 82 86 80 84 86 90 90 89 88
80 87 86 91 95 95 84 87 97 95 90 85 90 95 98 97 95 96 95 96 86 77 72 87 71 70 86 93 87 90 92 93 90 86 82 83 84 82 83 87 91 91 90
65 69 84 94 97 97 95 87 86 90 94 93 93 94 96 99 96 95 87 93 95 80 75 90 57 79 85 94 95 93 90 91 90 90 90 87 85 81 82 82 86 90 87
81 75 72 74 83 84 82 87 84 84 85 94 94 97 97 97 97 84 68 80 72 73 70 80 78 81 95 97 86 89 89 90 92 92 92 90 89 88 83 79 81 80 85
76 70 78 85 85 79 79 83 84 83 86 86 88 91 90 85 81 73 68 72 66 62 68 76 78 84 86 95 93 89 90 91 93 94 94 94 94 93 92 89 87 83 79
92 90 88 86 85 82 84 84 85 89 86 88 77 85 87 84 81 74 62 64 66 75 77 73 79 93 90 94 91 87 92 91 92 94 95 94 92 92 91 92 90 88 89
89 84 75 78 79 84 80 84 83 87 88 88 87 89 87 84 84 79 75 73 81 75 72 68 90 90 90 88 91 94 95 91 91 93 94 96 96 96 96 97 92 89 86
92 83 73 86 88 88 85 84 88 90 86 88 80 86 80 79 81 80 82 80 79 74 78 88 90 89 92 91 85 92 91 88 91 93 94 96 97 96 97 98 97 97 96
89 88 91 89 86 83 83 86 88 88 88 88 86 89 89 87 81 89 84 89 86 80 86 85 94 85 82 93 94 91 83 88 94 92 92 94 94 95 96 97 97 97 96
91 90 91 88 84 84 85 88 87 84 87 88 86 87 83 82 85 83 94 92 92 90 89 89 91 92 86 94 96 96 65 66 86 88 90 90 90 90 92 94 95 95 95
86 83 86 89 86 87 86 85 88 88 89 89 88 87 86 86 87 84 89 92 93 90 93 91 87 90 83 87 98 96 93 92 72 82 86 85 85 86 87 89 90 92 94
85 85 83 88 86 89 88 83 84 86 86 86 86 84 85 88 88 89 85 88 91 93 93 94 95 90 95 96 98 98 98 98 95 58 70 78 77 79 82 86 84 88 92
80 80 82 84 88 84 77 87 88 85 86 87 86 88 83 88 91 90 94 94 93 94 95 95 96 96 96 98 98 99 99 98 96 88 76 84 79 70 76 78 77 82 88
85 88 89 90 89 74 97 92 90 91 87 83 88 89 90 86 89 97 95 94 94 94 94 96 96 96 93 94 96 98 99 99 100 96 91 86 69 78 75 79 75 80 85
92 93 93 94 94 95 96 96 95 90 92 93 92 94 88 87 95 97 97 98 97 93 90 94 96 98 97 99 98 96 96 96 97 98 93 72 69 90 72 76 73 77 81
92 94 94 93 93 99 98 94 94 94 94 95 96 95 98 94 89 93 97 97 98 95 92 78 88 96 94 94 93 94 95 94 96 98 97 92 67 69 66 71 75 71 78
97 98 99 99 99 99 99 99 99 97 98 96 94 94 84 77 89 91 96 98 97 93 88 88 86 84 84 83 79 78 90 96 97 99 94 99 84 65 56 59 66 75 78
99 96 98 99 99 99 99 99 100 99 98 95 91 93 96 91 94 91 92 97 98 98 87 93 90 78 69 71 75 66 72 81 95 97 87 97 93 74 66 58 57 68 69

GFSMA_sfc_rhum_138.txt.gz
RH
80 91 90 92 86 86 90 88 88 74 73 68 63 66 68 58 58 64 74 76 80 79 75 74 78 79 78 79 78 76 76 75 77 80 82 77 80 77 76 81 78 73 73
90 96 95 95 96 97 89 79 77 77 72 65 54 47 53 54 56 59 81 88 79 81 80 80 81 81 79 76 78 77 78 79 78 80 83 79 81 77 76 80 76 73 73
95 94 95 92 95 96 91 90 84 82 73 63 53 53 53 55 56 63 79 83 88 82 85 82 91 81 79 80 78 78 81 84 80 79 83 79 81 78 78 79 77 78 74
90 90 93 90 92 87 90 92 85 90 79 68 71 68 69 63 66 71 75 92 76 85 84 73 86 88 80 77 78 78 80 84 85 82 83 78 81 78 79 79 80 80 79
81 88 90 92 89 93 98 90 92 88 88 75 70 70 69 59 64 67 85 82 83 76 75 74 85 91 78 72 74 71 76 83 86 85 82 79 82 80 80 80 80 80 79
89 91 90 86 90 93 96 96 96 96 94 96 59 58 72 76 86 89 90 84 76 71 80 89 92 92 80 78 71 76 75 78 84 87 83 85 85 83 82 82 81 81 80
85 87 93 79 92 94 94 91 97 92 94 94 72 58 77 88 83 85 88 90 88 87 91 95 97 95 86 74 77 81 78 79 80 83 86 86 85 86 87 87 87 82 81
81 84 90 86 92 92 93 87 94 94 93 94 96 96 92 77 81 71 85 77 88 93 91 84 87 87 84 89 87 84 86 85 81 82 86 84 86 88 87 87 88 87 83
81 84 86 85 90 92 87 87 88 92 81 90 93 82 83 91 94 85 70 84 89 95 89 91 84 82 89 92 88 90 90 92 86 81 84 84 86 88 88 88 88 89 88
87 85 81 85 89 94 86 86 92 90 86 79 94 94 94 94 90 90 93 92 90 78 83 90 80 84 87 95 88 90 92 92 91 86 82 83 83 86 86 87 89 89 89
84 84 86 84 92 95 91 91 95 92 95 92 94 95 95 98 98 97 97 91 90 74 68 89 79 94 88 92 97 93 90 91 91 90 90 90 87 82 81 82 88 88 86
84 88 84 92 95 96 92 91 89 91 94 94 92 96 96 94 95 99 97 96 85 72 79 89 80 96 95 97 87 88 90 91 92 92 92 92 92 90 89 82 81 86 86
86 80 89 94 92 85 83 88 87 86 88 92 93 95 97 97 93 91 87 68 75 71 76 79 96 86 90 98 95 89 91 91 92 95 95 93 92 91 91 92 89 82 82
91 92 93 90 87 87 87 88 92 90 92 91 88 91 94 92 91 84 79 87 80 81 84 83 93 96 98 98 94 88 93 92 92 95 95 94 92 94 93 91 91 89 90
91 93 86 75 73 86 86 88 87 88 90 91 93 93 92 91 90 84 84 87 88 85 77 83 92 94 96 94 94 95 96 91 92 95 95 95 93 93 96 97 93 94 93
89 85 80 81 79 86 88 90 91 91 90 92 85 89 90 87 87 87 88 88 86 89 80 94 90 91 94 96 89 94 94 90 92 95 94 93 95 93 95 96 96 96 96
92 85 84 90 90 89 88 91 90 90 91 92 89 91 90 90 91 96 89 94 94 94 86 88 96 90 94 98 95 96 88 94 97 92 93 94 96 97 94 97 95 94 93
91 88 88 91 90 91 91 92 90 87 92 92 91 91 88 82 89 90 95 90 93 92 95 93 94 95 93 98 96 95 78 72 86 89 91 92 93 95 95 95 95 96 96
94 93 92 93 94 90 90 90 91 92 92 93 93 93 90 90 92 94 91 95 95 92 94 94 91 96 92 98 98 96 95 92 80 82 84 87 88 90 92 93 93 95 96
91 91 90 92 89 89 90 88 87 92 95 90 91 92 91 92 94 96 96 96 95 96 96 97 96 96 97 99 98 98 99 98 96 58 71 79 81 81 83 88 89 92 95
81 85 86 90 92 93 89 93 91 93 94 92 91 91 90 90 89 90 96 96 96 98 98 98 96 97 96 98 99 99 99 99 98 94 83 92 78 77 81 82 83 88 91
93 93 92 92 91 94 94 95 89 92 93 92 94 90 92 96 97 100 99 97 97 96 95 97 96 96 94 96 98 98 98 99 100 96 88 98 92 82 69 83 80 87 90
94 94 95 95 95 94 97 99 97 94 94 95 94 95 95 83 92 95 95 99 97 90 93 95 96 99 98 97 97 97 98 99 98 99 92 81 78 95 86 68 77 84 87
95 96 98 98 99 99 99 98 97 97 96 97 96 97 96 86 89 92 93 98 95 92 91 81 88 94 92 91 94 96 96 97 98 96 98 92 75 78 76 76 71 74 83
99 99 99 99 99 99 99 99 100 98 98 96 95 92 82 83 92 95 95 97 93 94 88 85 84 85 86 86 79 80 80 95 99 97 95 98 82 70 66 73 74 72 77
99 99 99 99 99 99 99 99 100 99 96 89 85 90 94 91 94 92 98 96 97 98 89 90 90 79 73 72 80 74 75 84 96 96 92 99 98 82 86 58 59 69 73

GFSMA_sfc_rhum_141.txt.gz
RH
86 93 91 94 88 94 94 92 90 85 82 75 70 74 76 74 67 66 73 72 81 78 81 82 84 76 79 78 79 77 74 74 77 81 80 78 80 76 76 77 75 74 76
96 96 95 93 94 96 88 86 85 83 81 75 61 54 60 66 61 63 78 86 79 81 72 76 70 77 80 79 78 76 77 78 77 82 81 81 77 77 78 76 74 72 73
93 92 93 89 96 94 90 92 93 91 79 65 63 60 58 58 58 65 76 88 88 76 70 67 76 83 81 81 76 76 79 80 79 79 82 81 77 76 82 77 77 72 73
89 91 88 88 94 93 91 92 94 87 84 70 73 73 69 67 70 73 78 89 75 84 72 78 85 81 75 80 75 77 78 82 83 79 82 80 78 77 78 80 80 78 77
84 88 89 90 89 96 95 92 92 88 86 77 74 73 66 65 72 79 85 86 80 82 79 72 73 75 73 77 75 73 74 80 85 83 80 80 80 79 79 80 80 79 78
84 86 90 86 89 96 96 96 88 94 91 89 57 61 74 80 88 87 86 81 77 86 88 82 92 91 85 84 75 75 76 77 82 85 81 81 84 81 81 82 82 81 78
87 85 90 90 94 93 93 90 93 87 92 96 70 85 82 86 87 89 89 90 85 87 89 93 95 96 96 87 75 79 80 81 81 83 84 85 86 84 84 85 84 82 83
86 79 85 87 90 91 90 92 93 93 93 94 92 93 85 77 83 74 88 79 80 89 89 86 89 91 94 95 84 85 86 86 81 82 85 85 85 87 85 88 88 84 83
83 85 89 80 89 90 87 83 87 88 83 86 94 76 83 87 94 79 86 91 86 91 90 93 86 83 90 95 89 90 90 93 86 82 83 85 86 87 85 86 88 88 85
86 82 77 86 91 93 83 87 91 90 86 79 93 94 94 89 86 87 90 96 90 86 86 91 87 88 89 96 89 90 91 92 91 89 84 82 84 84 86 85 86 88 86
87 88 86 84 92 95 92 91 95 91 94 93 93 94 96 98 96 94 90 84 89 82 75 88 88 95 93 94 97 92 89 91 91 90 88 90 92 83 82 85 86 86 85
94 89 86 85 92 95 94 94 93 92 96 94 93 94 94 92 93 96 98 96 94 80 88 95 90 97 97 96 88 87 88 90 91 93 92 90 90 90 90 84 83 85 85
94 92 94 94 94 95 94 91 91 90 94 95 93 95 97 96 96 97 96 90 85 74 80 94 96 96 92 98 95 88 89 91 93 94 93 92 92 91 90 90 89 83 83
92 91 94 95 94 92 90 92 94 93 93 95 92 92 94 96 98 92 87 93 85 83 87 81 93 97 99 98 92 86 95 92 93 94 92 92 92 92 91 89 91 92 88
91 93 93 92 85 88 90 90 92 92 92 92 92 92 96 94 97 90 89 92 92 88 82 84 94 96 99 98 94 94 96 91 93 95 93 92 93 95 96 97 93 92 94
92 94 88 84 80 81 88 91 94 92 92 93 89 92 95 94 95 93 95 93 94 94 86 96 92 95 97 96 92 94 94 92 93 93 92 93 92 93 94 96 96 96 96
93 91 88 86 89 91 90 93 94 92 93 94 93 93 92 92 92 97 96 96 96 97 92 88 98 96 98 98 97 96 88 94 97 92 92 93 93 92 93 94 94 94 95
95 93 89 91 92 92 93 94 94 90 93 94 94 93 93 87 91 93 96 94 95 95 96 92 94 97 93 98 96 94 93 78 87 89 91 92 94 95 95 96 96 96 97
94 93 91 93 94 94 95 94 95 94 94 94 94 94 94 93 93 95 95 96 97 94 97 97 94 95 98 99 98 97 95 93 77 83 87 88 90 92 94 94 95 96 97
88 96 94 93 94 96 92 91 90 93 93 94 94 94 94 93 94 94 96 96 97 98 98 98 98 98 98 99 98 98 98 98 95 63 75 81 82 82 86 89 92 95 97
85 91 94 93 94 94 92 93 94 93 95 95 94 95 93 93 94 96 98 96 96 98 99 99 98 98 98 100 99 99 99 99 98 96 86 93 77 80 83 86 86 90 92
94 94 95 93 94 95 96 94 97 94 93 96 97 95 94 95 97 99 100 99 98 96 96 98 97 97 94 97 98 99 99 99 99 98 91 97 96 78 69 80 86 89 89
96 96 96 95 95 96 100 100 99 96 96 95 96 98 96 87 90 93 96 99 93 90 94 96 96 97 98 98 97 97 98 98 99 100 93 95 80 93 82 70 81 86 86
98 98 98 98 99 99 100 100 98 96 97 97 97 98 95 90 92 95 95 98 93 94 94 79 90 93 93 94 96 97 96 99 98 94 98 92 78 77 74 70 74 78 84
99 99 99 99 99 99 99 99 100 99 98 97 96 94 91 91 94 97 97 94 94 92 84 85 85 84 84 90 86 85 83 98 100 96 97 97 78 67 64 76 78 78 82
99 99 99 99 99 99 99 99 100 99 97 86 87 91 96 96 98 98 97 94 97 96 83 89 92 87 89 90 91 96 99 99 99 98 98 99 98 93 95 73 87 96 92